Location: Elstree
(51.6403°N, 0.2969°W)
Time: 21:35:44
(UTC+00:00)

Cosmos 1378 - Pass Details

Date: 03 March 2021
Orbit: 489 x 501 km, 82.5° (Epoch: 15 April)

Event Time Altitude Azimuth Distance (km) Brightness Sun altitude
Rises 19:58:30 0° 349° (N) 2,607 7.2 -21.3°
Reaches altitude 10° 20:00:38 10° 350° (N) 1,716 6.2 -21.6°
Enters shadow 20:04:09 77° 359° (N) 519 3.1 -22.1°
